| time (UTC) | temp C | wind direction | speed KPH | gust KPH | rain 1hr cm | rain 24hr cm | rain mn cm | humidity % | barometer mb |
| 20260505181619 | 29 | 250 | 4.8 | 12.9 | 0.00 | 0.00 | 0.00 | 29 | 1010.8 |
| 20260505181119 | 28 | 94 | 4.8 | 12.9 | 0.00 | 0.00 | 0.00 | 29 | 1010.9 |
| 20260505180620 | 28 | 126 | 4.8 | 16.1 | 0.00 | 0.00 | 0.00 | 29 | 1010.9 |
| 20260505180117 | 28 | 317 | 8.0 | 20.9 | 0.00 | 0.00 | 0.00 | 31 | 1010.9 |
| 20260505175619 | 28 | 178 | 6.4 | 20.9 | 0.00 | 0.00 | 0.00 | 30 | 1011.0 |
| 20260505175118 | 28 | 236 | 6.4 | 20.9 | 0.00 | 0.00 | 0.00 | 32 | 1011.2 |
| 20260505174618 | 28 | 198 | 6.4 | 20.9 | 0.00 | 0.00 | 0.00 | 31 | 1011.2 |
| 20260505174119 | 28 | 279 | 4.8 | 22.5 | 0.00 | 0.00 | 0.00 | 29 | 1011.1 |
| 20260505173834 | 28 | 246 | 6.4 | 22.5 | 0.00 | 0.00 | 0.00 | 30 | 1011.2 |
| 20260505173115 | 28 | 86 | 4.8 | 20.9 | 0.00 | 0.00 | 0.00 | 30 | 1011.0 |
| 20260505172617 | 29 | 217 | 3.2 | 16.1 | 0.00 | 0.00 | 0.00 | 30 | 1011.2 |
| 20260505172331 | 27 | 261 | 4.8 | 14.5 | 0.00 | 0.00 | 0.00 | 36 | 1011.1 |
| 20260505171617 | 27 | 42 | 4.8 | 17.7 | 0.00 | 0.00 | 0.00 | 33 | 1011.3 |
| 20260505171117 | 27 | 192 | 4.8 | 17.7 | 0.00 | 0.00 | 0.00 | 34 | 1011.2 |
| 20260505170611 | 27 | 240 | 6.4 | 20.9 | 0.00 | 0.00 | 0.00 | 34 | 1011.3 |
| 20260505170327 | 27 | 269 | 6.4 | 20.9 | 0.00 | 0.00 | 0.00 | 35 | 1011.4 |
| 20260505165820 | 27 | 240 | 4.8 | 16.1 | 0.00 | 0.00 | 0.00 | 36 | 1011.4 |
| 20260505165052 | 27 | 179 | 6.4 | 20.9 | 0.00 | 0.00 | 0.00 | 37 | 1011.5 |
| 20260505164546 | 27 | 201 | 4.8 | 20.9 | 0.00 | 0.00 | 0.00 | 36 | 1011.7 |
| 20260505164041 | 27 | 234 | 6.4 | 17.7 | 0.00 | 0.00 | 0.00 | 37 | 1011.7 |
| 20260505163804 | 26 | 209 | 6.4 | 22.5 | 0.00 | 0.00 | 0.00 | 37 | 1011.8 |
| 20260505163028 | 26 | 190 | 6.4 | 22.5 | 0.00 | 0.00 | 0.00 | 37 | 1012.0 |
| 20260505162523 | 26 | 234 | 4.8 | 20.9 | 0.00 | 0.00 | 0.00 | 37 | 1012.0 |
| 20260505162024 | 26 | 210 | 4.8 | 20.9 | 0.00 | 0.00 | 0.00 | 38 | 1012.2 |
| 20260505161524 | 26 | 192 | 4.8 | 17.7 | 0.00 | 0.00 | 0.00 | 38 | 1012.2 |
| 20260505161023 | 26 | 111 | 4.8 | 17.7 | 0.00 | 0.00 | 0.00 | 39 | 1012.3 |
| 20260505160523 | 26 | 141 | 4.8 | 16.1 | 0.00 | 0.00 | 0.00 | 40 | 1012.4 |
| 20260505153022 | 25 | 142 | 3.2 | 14.5 | 0.00 | 0.00 | 0.00 | 43 | 1012.5 |
| 20260505153010 | 25 | 144 | 3.2 | 12.9 | 0.00 | 0.00 | 0.00 | 41 | 1012.5 |
| 20260505152019 | 25 | 252 | 3.2 | 11.3 | 0.00 | 0.00 | 0.00 | 41 | 1012.5 |
| 20260505151521 | 24 | 207 | 3.2 | 11.3 | 0.00 | 0.00 | 0.00 | 43 | 1012.4 |
| 20260505151018 | 24 | 333 | 4.8 | 17.7 | 0.00 | 0.00 | 0.00 | 44 | 1012.5 |
| 20260505150518 | 23 | 180 | 3.2 | 17.7 | 0.00 | 0.00 | 0.00 | 46 | 1012.5 |
| 20260505140516 | 21 | 140 | 1.6 | 8.0 | 0.00 | 0.00 | 0.00 | 52 | 1012.6 |
| 20260505130242 | 17 | 215 | 3.2 | 9.7 | 0.00 | 0.00 | 0.00 | 60 | 1012.5 |
| 20260505125013 | 17 | 130 | 3.2 | 16.1 | 0.00 | 0.00 | 0.00 | 61 | 1012.7 |
| 20260505124507 | 16 | 241 | 3.2 | 16.1 | 0.00 | 0.00 | 0.00 | 61 | 1012.8 |
| 20260505124001 | 16 | 222 | 1.6 | 12.9 | 0.00 | 0.00 | 0.00 | 61 | 1012.8 |
| 20260505123455 | 16 | 265 | 3.2 | 9.7 | 0.00 | 0.00 | 0.00 | 62 | 1012.8 |
| 20260505122949 | 16 | 186 | 3.2 | 9.7 | 0.00 | 0.00 | 0.00 | 62 | 1012.8 |
| 20260505122444 | 16 | 198 | 1.6 | 9.7 | 0.00 | 0.00 | 0.00 | 63 | 1012.7 |
| 20260505121938 | 16 | 65 | 1.6 | 8.0 | 0.00 | 0.00 | 0.00 | 64 | 1012.6 |
| 20260505121433 | 16 | 217 | 3.2 | 11.3 | 0.00 | 0.00 | 0.00 | 63 | 1012.5 |
| 20260505120932 | 16 | 243 | 3.2 | 11.3 | 0.00 | 0.00 | 0.00 | 63 | 1012.4 |
| 20260505120431 | 16 | 194 | 3.2 | 11.3 | 0.00 | 0.00 | 0.00 | 63 | 1012.5 |
| 20260505115929 | 16 | 305 | 3.2 | 11.3 | 0.00 | 0.00 | 0.00 | 63 | 1012.6 |
| 20260505115430 | 15 | 304 | 3.2 | 12.9 | 0.00 | 0.00 | 0.00 | 63 | 1012.5 |
| 20260505114929 | 15 | 288 | 3.2 | 14.5 | 0.00 | 0.00 | 0.00 | 63 | 1012.6 |
| 20260505114430 | 15 | 158 | 3.2 | 14.5 | 0.00 | 0.00 | 0.00 | 64 | 1012.5 |
| 20260505113929 | 15 | 219 | 3.2 | 6.4 | 0.00 | 0.00 | 0.00 | 63 | 1012.4 |
| 20260505113428 | 15 | 241 | 1.6 | 9.7 | 0.00 | 0.00 | 0.00 | 63 | 1012.3 |
| 20260505112926 | 15 | 174 | 1.6 | 9.7 | 0.00 | 0.00 | 0.00 | 64 | 1012.3 |
| 20260505112904 | 15 | 184 | 3.2 | 11.3 | 0.00 | 0.00 | 0.00 | 63 | 1012.3 |
| 20260505111922 | 15 | 196 | 1.6 | 11.3 | 0.00 | 0.00 | 0.00 | 63 | 1012.3 |
| 20260505111422 | 15 | 204 | 3.2 | 14.5 | 0.00 | 0.00 | 0.00 | 64 | 1012.2 |
| 20260505110923 | 15 | 250 | 1.6 | 14.5 | 0.00 | 0.00 | 0.00 | 63 | 1012.1 |
| 20260505110421 | 15 | 248 | 1.6 | 11.3 | 0.00 | 0.00 | 0.00 | 63 | 1012.1 |
| 20260505110150 | 15 | 300 | 1.6 | 11.3 | 0.00 | 0.00 | 0.00 | 63 | 1012.0 |
| 20260505101852 | 15 | 250 | 3.2 | 14.5 | 0.00 | 0.00 | 0.00 | 61 | 1011.8 |
| 20260505101346 | 15 | 140 | 1.6 | 8.0 | 0.00 | 0.00 | 0.00 | 61 | 1011.8 |
| 20260505100839 | 15 | 168 | 1.6 | 8.0 | 0.00 | 0.00 | 0.00 | 61 | 1011.7 |
| 20260505100333 | 15 | 212 | 3.2 | 9.7 | 0.00 | 0.00 | 0.00 | 62 | 1011.7 |
| 20260505095827 | 15 | 211 | 3.2 | 11.3 | 0.00 | 0.00 | 0.00 | 61 | 1011.7 |
| 20260505095321 | 15 | 237 | 3.2 | 14.5 | 0.00 | 0.00 | 0.00 | 61 | 1011.7 |
| 20260505095040 | 15 | 164 | 3.2 | 14.5 | 0.00 | 0.00 | 0.00 | 61 | 1011.8 |
| 20260505094309 | 15 | 122 | 3.2 | 11.3 | 0.00 | 0.00 | 0.00 | 61 | 1011.7 |
| 20260505094029 | 15 | 203 | 3.2 | 11.3 | 0.00 | 0.00 | 0.00 | 61 | 1011.6 |
| 20260505093517 | 15 | 349 | 3.2 | 11.3 | 0.00 | 0.00 | 0.00 | 61 | 1011.6 |
| 20260505093013 | 15 | 142 | 3.2 | 11.3 | 0.00 | 0.00 | 0.00 | 61 | 1011.6 |
| 20260505092246 | 15 | 211 | 3.2 | 12.9 | 0.00 | 0.00 | 0.00 | 60 | 1011.6 |
| 20260505091739 | 15 | 218 | 3.2 | 12.9 | 0.00 | 0.00 | 0.00 | 61 | 1011.6 |
| 20260505091233 | 15 | 264 | 3.2 | 16.1 | 0.00 | 0.00 | 0.00 | 61 | 1011.5 |
| 20260505090728 | 15 | 123 | 3.2 | 16.1 | 0.00 | 0.00 | 0.00 | 60 | 1011.4 |
| 20260505090221 | 15 | 209 | 3.2 | 14.5 | 0.00 | 0.00 | 0.00 | 61 | 1011.5 |
| 20260505085715 | 15 | 217 | 3.2 | 14.5 | 0.00 | 0.00 | 0.00 | 60 | 1011.5 |
| 20260505085208 | 16 | 140 | 3.2 | 16.1 | 0.00 | 0.00 | 0.00 | 60 | 1011.4 |
| 20260505084927 | 16 | 212 | 3.2 | 16.1 | 0.00 | 0.00 | 0.00 | 60 | 1011.4 |
| 20260505084639 | 16 | 254 | 1.6 | 11.3 | 0.00 | 0.00 | 0.00 | 60 | 1011.5 |
| 20260505083653 | 16 | 286 | 1.6 | 8.0 | 0.00 | 0.00 | 0.00 | 60 | 1011.4 |
| 20260505083145 | 16 | 25 | 1.6 | 4.8 | 0.00 | 0.00 | 0.00 | 60 | 1011.3 |
| 20260505082638 | 16 | 219 | 1.6 | 6.4 | 0.00 | 0.00 | 0.00 | 60 | 1011.5 |
| 20260505082134 | 16 | 244 | 3.2 | 11.3 | 0.00 | 0.00 | 0.00 | 60 | 1011.5 |
| 20260505081627 | 16 | 239 | 3.2 | 11.3 | 0.00 | 0.00 | 0.00 | 60 | 1011.4 |
| 20260505081122 | 16 | 232 | 1.6 | 16.1 | 0.00 | 0.00 | 0.00 | 60 | 1011.4 |
| 20260505080615 | 16 | 229 | 1.6 | 16.1 | 0.00 | 0.00 | 0.00 | 60 | 1011.4 |
| 20260505080110 | 16 | 216 | 1.6 | 8.0 | 0.00 | 0.00 | 0.00 | 60 | 1011.3 |
| 20260505075603 | 16 | 257 | 1.6 | 8.0 | 0.00 | 0.00 | 0.00 | 61 | 1011.4 |
| 20260505075058 | 16 | 207 | 3.2 | 11.3 | 0.00 | 0.00 | 0.00 | 61 | 1011.3 |
| 20260505074551 | 16 | 232 | 1.6 | 11.3 | 0.00 | 0.00 | 0.00 | 61 | 1011.2 |
| 20260505074045 | 16 | 183 | 1.6 | 6.4 | 0.00 | 0.00 | 0.00 | 61 | 1011.1 |
| 20260505073539 | 16 | 199 | 1.6 | 6.4 | 0.00 | 0.00 | 0.00 | 61 | 1011.1 |
| 20260505073033 | 16 | 231 | 1.6 | 6.4 | 0.00 | 0.00 | 0.00 | 61 | 1011.1 |
| 20260505072527 | 16 | 189 | 3.2 | 11.3 | 0.00 | 0.00 | 0.00 | 61 | 1011.1 |
| 20260505072021 | 16 | 307 | 3.2 | 11.3 | 0.00 | 0.00 | 0.00 | 61 | 1011.1 |
| 20260505071516 | 16 | 223 | 1.6 | 6.4 | 0.00 | 0.00 | 0.00 | 61 | 1011.0 |
| 20260505071009 | 16 | 148 | 1.6 | 8.0 | 0.00 | 0.00 | 0.00 | 61 | 1011.1 |
| 20260505070503 | 16 | 284 | 3.2 | 8.0 | 0.00 | 0.00 | 0.00 | 62 | 1011.1 |
| 20260505065957 | 16 | 227 | 3.2 | 9.7 | 0.00 | 0.00 | 0.00 | 62 | 1011.0 |
| 20260505065452 | 16 | 229 | 1.6 | 9.7 | 0.00 | 0.00 | 0.00 | 62 | 1011.0 |
| 20260505064945 | 16 | 254 | 1.6 | 6.4 | 0.00 | 0.00 | 0.00 | 62 | 1010.8 |
| 20260505064439 | 16 | 284 | 3.2 | 11.3 | 0.00 | 0.00 | 0.00 | 63 | 1010.9 |
| 20260505063933 | 15 | 277 | 3.2 | 11.3 | 0.00 | 0.00 | 0.00 | 64 | 1010.8 |
| 20260505063427 | 15 | 195 | 1.6 | 8.0 | 0.00 | 0.00 | 0.00 | 64 | 1010.9 |
| 20260505062921 | 15 | 217 | 1.6 | 11.3 | 0.00 | 0.00 | 0.00 | 65 | 1010.8 |
| 20260505062415 | 15 | 166 | 3.2 | 11.3 | 0.00 | 0.00 | 0.00 | 66 | 1010.9 |
| 20260505061909 | 15 | 235 | 3.2 | 12.9 | 0.00 | 0.00 | 0.00 | 66 | 1010.8 |
| 20260505061403 | 15 | 254 | 1.6 | 12.9 | 0.00 | 0.00 | 0.00 | 66 | 1010.8 |
| 20260505060858 | 15 | 273 | 1.6 | 6.4 | 0.00 | 0.00 | 0.00 | 67 | 1010.8 |
| 20260505060358 | 15 | 227 | 1.6 | 6.4 | 0.00 | 0.00 | 0.00 | 68 | 1010.7 |
| 20260505055859 | 15 | 176 | 1.6 | 6.4 | 0.00 | 0.00 | 0.00 | 67 | 1010.8 |
| 20260505055400 | 15 | 206 | 0.0 | 4.8 | 0.00 | 0.00 | 0.00 | 68 | 1010.7 |
| 20260505054859 | 15 | 207 | 0.0 | 4.8 | 0.00 | 0.00 | 0.00 | 68 | 1010.8 |
| 20260505054359 | 15 | 131 | 0.0 | 3.2 | 0.00 | 0.00 | 0.00 | 68 | 1010.8 |
| 20260505053855 | 15 | 130 | 1.6 | 6.4 | 0.00 | 0.00 | 0.00 | 68 | 1010.8 |
| 20260505053358 | 15 | 288 | 1.6 | 6.4 | 0.00 | 0.00 | 0.00 | 68 | 1010.8 |
| 20260505052856 | 15 | 188 | 0.0 | 4.8 | 0.00 | 0.00 | 0.00 | 69 | 1010.8 |
| 20260505052355 | 15 | 154 | 0.0 | 3.2 | 0.00 | 0.00 | 0.00 | 68 | 1010.8 |
| 20260505051854 | 15 | 250 | 0.0 | 3.2 | 0.00 | 0.00 | 0.00 | 68 | 1010.8 |
| 20260505051353 | 15 | 211 | 0.0 | 1.6 | 0.00 | 0.00 | 0.00 | 68 | 1010.8 |
| 20260505050851 | 15 | 231 | 0.0 | 3.2 | 0.00 | 0.00 | 0.00 | 69 | 1010.8 |
| 20260505050349 | 15 | 234 | 0.0 | 3.2 | 0.00 | 0.00 | 0.00 | 69 | 1010.9 |
| 20260505041339 | 16 | 171 | 0.0 | 1.6 | 0.00 | 0.00 | 0.00 | 65 | 1010.8 |
| 20260505040838 | 16 | 171 | 0.0 | 1.6 | 0.00 | 0.00 | 0.00 | 65 | 1010.8 |
| 20260505040338 | 16 | 171 | 0.0 | 1.6 | 0.00 | 0.00 | 0.00 | 65 | 1010.9 |
| 20260505035840 | 16 | 224 | 0.0 | 1.6 | 0.00 | 0.00 | 0.00 | 64 | 1010.8 |
| 20260505035333 | 17 | 231 | 0.0 | 1.6 | 0.00 | 0.00 | 0.00 | 63 | 1010.7 |
| 20260505035054 | 17 | 213 | 0.0 | 0.0 | 0.00 | 0.00 | 0.00 | 63 | 1010.8 |
| 20260505034321 | 17 | 213 | 0.0 | 1.6 | 0.00 | 0.00 | 0.00 | 63 | 1010.8 |
| 20260505033816 | 17 | 213 | 0.0 | 4.8 | 0.00 | 0.00 | 0.00 | 62 | 1010.9 |
| 20260505033309 | 17 | 200 | 0.0 | 4.8 | 0.00 | 0.00 | 0.00 | 62 | 1010.8 |
| 20260505032803 | 17 | 142 | 0.0 | 4.8 | 0.00 | 0.00 | 0.00 | 62 | 1010.9 |
| 20260505032258 | 17 | 188 | 0.0 | 4.8 | 0.00 | 0.00 | 0.00 | 61 | 1010.9 |
| 20260505031751 | 17 | 214 | 0.0 | 4.8 | 0.00 | 0.00 | 0.00 | 60 | 1010.9 |
| 20260505031245 | 17 | 247 | 0.0 | 3.2 | 0.00 | 0.00 | 0.00 | 60 | 1011.0 |
| 20260505030739 | 17 | 341 | 0.0 | 3.2 | 0.00 | 0.00 | 0.00 | 59 | 1011.0 |
| 20260505030234 | 17 | 188 | 0.0 | 3.2 | 0.00 | 0.00 | 0.00 | 59 | 1011.0 |
| 20260505025727 | 18 | 188 | 1.6 | 4.8 | 0.00 | 0.00 | 0.00 | 59 | 1011.0 |
| 20260505025706 | 18 | 212 | 1.6 | 4.8 | 0.00 | 0.00 | 0.00 | 59 | 1011.0 |
| 20260505024716 | 18 | 198 | 0.0 | 3.2 | 0.00 | 0.00 | 0.00 | 58 | 1011.0 |
| 20260505024210 | 18 | 234 | 0.0 | 3.2 | 0.00 | 0.00 | 0.00 | 58 | 1011.0 |
| 20260505023703 | 18 | 234 | 0.0 | 3.2 | 0.00 | 0.00 | 0.00 | 57 | 1011.0 |
| 20260505023158 | 18 | 108 | 0.0 | 3.2 | 0.00 | 0.00 | 0.00 | 56 | 1010.9 |
| 20260505022658 | 18 | 313 | 0.0 | 4.8 | 0.00 | 0.00 | 0.00 | 56 | 1010.9 |
| 20260505022154 | 18 | 235 | 0.0 | 4.8 | 0.00 | 0.00 | 0.00 | 56 | 1010.9 |
| 20260505021653 | 18 | 199 | 0.0 | 4.8 | 0.00 | 0.00 | 0.00 | 55 | 1010.9 |
| 20260505021151 | 18 | 252 | 0.0 | 3.2 | 0.00 | 0.00 | 0.00 | 54 | 1010.9 |
| 20260505020912 | 19 | 242 | 0.0 | 3.2 | 0.00 | 0.00 | 0.00 | 53 | 1010.9 |
| 20260505020152 | 19 | 234 | 0.0 | 3.2 | 0.00 | 0.00 | 0.00 | 53 | 1010.9 |
| 20260505015653 | 19 | 234 | 0.0 | 3.2 | 0.00 | 0.00 | 0.00 | 53 | 1010.8 |
| 20260505015156 | 19 | 123 | 0.0 | 3.2 | 0.00 | 0.00 | 0.00 | 52 | 1010.8 |
| 20260505015133 | 19 | 190 | 0.0 | 3.2 | 0.00 | 0.00 | 0.00 | 51 | 1010.8 |
| 20260505014153 | 20 | 202 | 0.0 | 3.2 | 0.00 | 0.00 | 0.00 | 51 | 1010.7 |
| 20260505013654 | 20 | 243 | 0.0 | 3.2 | 0.00 | 0.00 | 0.00 | 50 | 1010.7 |
| 20260505013421 | 20 | 252 | 0.0 | 3.2 | 0.00 | 0.00 | 0.00 | 50 | 1010.7 |
| 20260505012649 | 20 | 207 | 0.0 | 3.2 | 0.00 | 0.00 | 0.00 | 49 | 1010.4 |
| 20260505012149 | 20 | 244 | 1.6 | 6.4 | 0.00 | 0.00 | 0.00 | 49 | 1010.6 |
| 20260505011649 | 20 | 198 | 1.6 | 6.4 | 0.00 | 0.00 | 0.00 | 48 | 1010.6 |
| 20260505011149 | 20 | 252 | 1.6 | 6.4 | 0.00 | 0.00 | 0.00 | 49 | 1010.6 |
| 20260505010648 | 20 | 104 | 0.0 | 4.8 | 0.00 | 0.00 | 0.00 | 47 | 1010.5 |
| 20260505010147 | 20 | 220 | 1.6 | 8.0 | 0.00 | 0.00 | 0.00 | 46 | 1010.4 |
| 20260505005909 | 21 | 243 | 1.6 | 8.0 | 0.00 | 0.00 | 0.00 | 47 | 1010.4 |
| 20260505005149 | 21 | 214 | 1.6 | 6.4 | 0.00 | 0.00 | 0.00 | 46 | 1010.3 |
| 20260505004649 | 21 | 234 | 0.0 | 3.2 | 0.00 | 0.00 | 0.00 | 45 | 1010.2 |
| 20260505004149 | 21 | 273 | 0.0 | 3.2 | 0.00 | 0.00 | 0.00 | 45 | 1010.2 |
| 20260505003908 | 21 | 312 | 0.0 | 3.2 | 0.00 | 0.00 | 0.00 | 44 | 1010.2 |
| 20260505003148 | 21 | 248 | 0.0 | 4.8 | 0.00 | 0.00 | 0.00 | 44 | 1010.2 |
| 20260505002648 | 21 | 252 | 1.6 | 9.7 | 0.00 | 0.00 | 0.00 | 44 | 1010.2 |
| 20260505002148 | 21 | 246 | 1.6 | 9.7 | 0.00 | 0.00 | 0.00 | 43 | 1010.2 |
| 20260505001647 | 22 | 225 | 1.6 | 12.9 | 0.00 | 0.00 | 0.00 | 43 | 1010.1 |
| 20260505001148 | 22 | 257 | 0.0 | 12.9 | 0.00 | 0.00 | 0.00 | 44 | 1010.1 |
| 20260505000647 | 22 | 197 | 0.0 | 1.6 | 0.00 | 0.00 | 0.00 | 44 | 1010.1 |
| 20260505000144 | 22 | 204 | 0.0 | 1.6 | 0.00 | 0.00 | 0.00 | 44 | 1010.1 |
| 20260504235644 | 22 | 232 | 0.0 | 1.6 | 0.00 | 0.00 | 0.00 | 43 | 1010.1 |
| 20260504235143 | 22 | 243 | 0.0 | 1.6 | 0.00 | 0.00 | 0.00 | 43 | 1010.1 |
| 20260504234646 | 22 | 198 | 0.0 | 1.6 | 0.00 | 0.00 | 0.00 | 43 | 1010.0 |
| 20260504234144 | 22 | 217 | 0.0 | 3.2 | 0.00 | 0.00 | 0.00 | 43 | 1010.0 |
| 20260504233645 | 22 | 217 | 1.6 | 6.4 | 0.00 | 0.00 | 0.00 | 40 | 1010.0 |
| 20260504233144 | 22 | 184 | 1.6 | 6.4 | 0.00 | 0.00 | 0.00 | 40 | 1010.1 |
| 20260504232645 | 22 | 207 | 1.6 | 6.4 | 0.00 | 0.00 | 0.00 | 40 | 1010.1 |
| 20260504232143 | 23 | 223 | 1.6 | 6.4 | 0.00 | 0.00 | 0.00 | 40 | 1009.9 |
| 20260504231645 | 23 | 263 | 1.6 | 8.0 | 0.00 | 0.00 | 0.00 | 40 | 1009.9 |
| 20260504230641 | 23 | 136 | 3.2 | 11.3 | 0.00 | 0.00 | 0.00 | 39 | 1009.7 |
| 20260504230143 | 23 | 248 | 3.2 | 12.9 | 0.00 | 0.00 | 0.00 | 39 | 1009.7 |
| 20260504225642 | 23 | 257 | 3.2 | 12.9 | 0.00 | 0.00 | 0.00 | 38 | 1009.7 |
| 20260504225633 | 23 | 217 | 1.6 | 12.9 | 0.00 | 0.00 | 0.00 | 38 | 1009.8 |
| 20260504224901 | 23 | 209 | 3.2 | 11.3 | 0.00 | 0.00 | 0.00 | 39 | 1009.8 |
| 20260504224142 | 23 | 315 | 3.2 | 19.3 | 0.00 | 0.00 | 0.00 | 38 | 1009.8 |
| 20260504223636 | 23 | 267 | 3.2 | 19.3 | 0.00 | 0.00 | 0.00 | 37 | 1009.8 |
| 20260504223130 | 23 | 179 | 3.2 | 17.7 | 0.00 | 0.00 | 0.00 | 37 | 1009.7 |
| 20260504222624 | 23 | 225 | 3.2 | 11.3 | 0.00 | 0.00 | 0.00 | 38 | 1009.7 |
| 20260504222118 | 23 | 317 | 3.2 | 9.7 | 0.00 | 0.00 | 0.00 | 38 | 1009.7 |
| 20260504221611 | 23 | 148 | 3.2 | 12.9 | 0.00 | 0.00 | 0.00 | 37 | 1009.8 |
| 20260504221104 | 23 | 234 | 4.8 | 17.7 | 0.00 | 0.00 | 0.00 | 37 | 1009.9 |
| 20260504220558 | 23 | 310 | 6.4 | 17.7 | 0.00 | 0.00 | 0.00 | 36 | 1009.9 |
| 20260504220052 | 24 | 228 | 4.8 | 17.7 | 0.00 | 0.00 | 0.00 | 37 | 1009.9 |
| 20260504215545 | 23 | 208 | 3.2 | 12.9 | 0.00 | 0.00 | 0.00 | 36 | 1010.0 |
| 20260504215301 | 23 | 236 | 3.2 | 16.1 | 0.00 | 0.00 | 0.00 | 36 | 1009.9 |
| 20260504214535 | 23 | 272 | 3.2 | 16.1 | 0.00 | 0.00 | 0.00 | 36 | 1009.8 |
| 20260504214245 | 23 | 308 | 3.2 | 14.5 | 0.00 | 0.00 | 0.00 | 36 | 1009.7 |
| 20260504213523 | 24 | 150 | 4.8 | 11.3 | 0.00 | 0.00 | 0.00 | 35 | 1009.7 |
| 20260504213016 | 24 | 219 | 3.2 | 17.7 | 0.00 | 0.00 | 0.00 | 36 | 1009.8 |
| 20260504212511 | 24 | 175 | 3.2 | 17.7 | 0.00 | 0.00 | 0.00 | 35 | 1009.8 |
| 20260504212004 | 24 | 140 | 3.2 | 16.1 | 0.00 | 0.00 | 0.00 | 35 | 1009.9 |
| 20260504211458 | 24 | 56 | 3.2 | 16.1 | 0.00 | 0.00 | 0.00 | 34 | 1009.8 |
| 20260504210952 | 24 | 133 | 3.2 | 9.7 | 0.00 | 0.00 | 0.00 | 34 | 1009.8 |
| 20260504210709 | 24 | 128 | 4.8 | 14.5 | 0.00 | 0.00 | 0.00 | 34 | 1009.9 |
| 20260504205941 | 24 | 219 | 4.8 | 14.5 | 0.00 | 0.00 | 0.00 | 34 | 1009.9 |
| 20260504205435 | 24 | 211 | 3.2 | 14.5 | 0.00 | 0.00 | 0.00 | 34 | 1009.8 |
| 20260504204928 | 24 | 217 | 3.2 | 14.5 | 0.00 | 0.00 | 0.00 | 33 | 1009.8 |
| 20260504204422 | 24 | 86 | 4.8 | 12.9 | 0.00 | 0.00 | 0.00 | 36 | 1009.9 |
| 20260504203916 | 23 | 188 | 4.8 | 12.9 | 0.00 | 0.00 | 0.00 | 33 | 1009.9 |
| 20260504203410 | 25 | 235 | 4.8 | 12.9 | 0.00 | 0.00 | 0.00 | 32 | 1010.0 |
| 20260504202904 | 25 | 281 | 3.2 | 9.7 | 0.00 | 0.00 | 0.00 | 32 | 1010.0 |
| 20260504202359 | 25 | 155 | 3.2 | 9.7 | 0.00 | 0.00 | 0.00 | 35 | 1010.0 |
| 20260504201851 | 26 | 321 | 3.2 | 14.5 | 0.00 | 0.00 | 0.00 | 32 | 1010.0 |
| 20260504201347 | 26 | 152 | 4.8 | 14.5 | 0.00 | 0.00 | 0.00 | 33 | 1009.9 |
| 20260504200841 | 26 | 230 | 4.8 | 14.5 | 0.00 | 0.00 | 0.00 | 30 | 1009.9 |
| 20260504200557 | 26 | 117 | 4.8 | 14.5 | 0.00 | 0.00 | 0.00 | 30 | 1009.8 |
| 20260504195828 | 26 | 171 | 4.8 | 14.5 | 0.00 | 0.00 | 0.00 | 31 | 1010.1 |
| 20260504195322 | 26 | 273 | 3.2 | 14.5 | 0.00 | 0.00 | 0.00 | 30 | 1010.0 |
| 20260504194816 | 26 | 146 | 3.2 | 14.5 | 0.00 | 0.00 | 0.00 | 29 | 1010.1 |
| 20260504194311 | 26 | 190 | 4.8 | 14.5 | 0.00 | 0.00 | 0.00 | 32 | 1010.2 |
| 20260504193804 | 25 | 288 | 4.8 | 14.5 | 0.00 | 0.00 | 0.00 | 31 | 1010.2 |
| 20260504193259 | 25 | 171 | 4.8 | 14.5 | 0.00 | 0.00 | 0.00 | 30 | 1010.3 |
| 20260504192752 | 25 | 169 | 4.8 | 17.7 | 0.00 | 0.00 | 0.00 | 29 | 1010.5 |
| 20260504192246 | 26 | 280 | 3.2 | 17.7 | 0.00 | 0.00 | 0.00 | 33 | 1010.4 |
| 20260504191741 | 26 | 345 | 3.2 | 9.7 | 0.00 | 0.00 | 0.00 | 29 | 1010.5 |
| 20260504191236 | 26 | 273 | 3.2 | 11.3 | 0.00 | 0.00 | 0.00 | 30 | 1010.6 |
| 20260504190951 | 26 | 273 | 3.2 | 16.1 | 0.00 | 0.00 | 0.00 | 29 | 1010.7 |
| 20260504190446 | 25 | 279 | 4.8 | 17.7 | 0.00 | 0.00 | 0.00 | 29 | 1010.8 |
| 20260504185934 | 26 | 19 | 4.8 | 17.7 | 0.00 | 0.00 | 0.00 | 29 | 1010.9 |
| 20260504185435 | 25 | 292 | 3.2 | 17.7 | 0.00 | 0.00 | 0.00 | 29 | 1011.0 |
| 20260504184704 | 25 | 175 | 4.8 | 17.7 | 0.00 | 0.00 | 0.00 | 29 | 1011.1 |
| 20260504184158 | 26 | 239 | 3.2 | 11.3 | 0.00 | 0.00 | 0.00 | 34 | 1011.1 |
| 20260504183652 | 25 | 295 | 4.8 | 20.9 | 0.00 | 0.00 | 0.00 | 31 | 1011.3 |
| 20260504183147 | 25 | 249 | 6.4 | 24.1 | 0.00 | 0.00 | 0.00 | 30 | 1011.4 |
| 20260504182640 | 25 | 289 | 6.4 | 14.5 | 0.00 | 0.00 | 0.00 | 29 | 1011.5 |
| 20260504182136 | 25 | 251 | 4.8 | 14.5 | 0.00 | 0.00 | 0.00 | 30 | 1011.7 |